Location: Newark
(42.4678°N, 122.8017°W)
Time: 23:32:08
(UTC+00:00)

N. Korean satellite - Pass Details

Date: 07 October 2020
Orbit: 452 x 505 km, 97.2° (Epoch: 29 October)

Event Time Altitude Azimuth Distance (km) Brightness Sun altitude
Rises 12:38:56 0° 34° (NE) 2,536 10.9 -18.6°
Reaches altitude 10° 12:42:12 10° 67° (ENE) 1,636 10.4 -18.0°
Maximum altitude 12:43:34 12° 90° (E) 1,515 10.3 -17.8°
Drops below altitude 10° 12:44:56 10° 114° (ESE) 1,619 10.1 -17.5°
Sets 12:48:06 0° 147° (SSE) 2,475 10.5 -16.9°
